Dover AFB, DE

2:34 PM EDT on March 23, 2017 (GMT -0400)
Dover Air Force Base

Weather History for KDOV - November, 2012

Change the Weather History Date:

Friday, November 16, 2012

  Actual Average Record
Temperature  
Mean Temperature 40 °F -  
Max Temperature 47 °F 57 °F 78 °F (1955)
Min Temperature 32 °F 37 °F 21 °F (1967)
Degree Days  
Heating Degree Days 26    
Moisture  
Dew Point 31 °F    
Average Humidity 71    
Maximum Humidity 87    
Minimum Humidity 51    
Precipitation  
Precipitation 0.00 in - - ()
Sea Level Pressure  
Sea Level Pressure 30.34 in    
Wind  
Wind Speed 7 mph (NNW)    
Max Wind Speed 14 mph    
Max Gust Speed -    
Visibility 10 miles    
Events      
Averages and records for this station are not official NWS values.
T = Trace of Precipitation, MM = Missing Value Source: NWS Daily Summary

Daily Weather History Graph

Daily Weather History Graph

Search for Another Location

Airport or City:

Trip Planner

Search our weather history database for the weather conditions in past years. The results will help you decide how hot, cold, wet, or windy it might be!

Date:

Astronomy

Nov. 16, 2012 Rise Set
Actual Time 6:46 AM EST 4:46 PM EST
Civil Twilight 6:17 AM EST 5:15 PM EST
Nautical Twilight 5:45 AM EST 5:47 PM EST
Astronomical Twilight 5:13 AM EST 6:19 PM EST
Moon 9:38 AM EST (11/16) 7:43 PM EST (11/16)
Length of Visible Light 10h 57m
Length of Day
9h 59m
Waxing Crescent, 11% of the Moon is Illuminated
Nov 16
Waxing Crescent
Nov 20
First Quarter
Nov 28
Full
Dec 6
Last Quarter
Dec 13
New

Hourly Weather History & Observations

Time (EST) Temp. Windchill Dew Point Humidity Pressure Visibility Wind Dir Wind Speed Gust Speed Precip Events Conditions
12:55 AM 40.1 °F 36.1 °F 33.1 °F 76% 30.29 in 10.0 mi NNW 5.8 mph - N/A   Scattered Clouds
1:55 AM 38.7 °F 35.2 °F 33.8 °F 83% 30.30 in 10.0 mi NNW 4.6 mph - N/A   Mostly Cloudy
2:55 AM 38.3 °F 33.2 °F 33.4 °F 83% 30.29 in 10.0 mi NNW 6.9 mph - N/A   Mostly Cloudy
3:55 AM 39.0 °F 34.0 °F 34.0 °F 82% 30.29 in 10.0 mi NNW 6.9 mph - N/A   Mostly Cloudy
4:55 AM 36.0 °F 30.3 °F 32.4 °F 87% 30.29 in 10.0 mi NNW 6.9 mph - N/A   Partly Cloudy
5:55 AM 37.8 °F 33.3 °F 33.8 °F 86% 30.30 in 10.0 mi NW 5.8 mph - N/A   Overcast
6:55 AM 39.2 °F 35.0 °F 34.2 °F 82% 30.31 in 10.0 mi North 5.8 mph - N/A   Overcast
7:55 AM 39.7 °F 35.6 °F 34.5 °F 82% 30.32 in 10.0 mi NNW 5.8 mph - N/A   Partly Cloudy
8:55 AM 40.8 °F 35.0 °F 32.4 °F 72% 30.33 in 10.0 mi North 9.2 mph - N/A   Clear
9:55 AM 43.0 °F 37.7 °F 30.9 °F 62% 30.33 in 10.0 mi North 9.2 mph - N/A   Partly Cloudy
10:55 AM 44.4 °F 37.9 °F 29.7 °F 56% 30.34 in 10.0 mi NNW 13.8 mph - N/A   Mostly Cloudy
11:55 AM 45.3 °F 40.1 °F 29.5 °F 54% 30.32 in 10.0 mi North 10.4 mph - N/A   Scattered Clouds
12:55 PM 46.9 °F - 30.0 °F 52% 30.32 in 10.0 mi North 12.7 mph - N/A   Scattered Clouds
1:55 PM 47.5 °F - 30.4 °F 52% 30.32 in 10.0 mi North 9.2 mph - N/A   Overcast
2:55 PM 46.8 °F - 29.7 °F 51% 30.31 in 10.0 mi North 8.1 mph - N/A   Mostly Cloudy
3:55 PM 46.8 °F - 29.7 °F 51% 30.33 in 10.0 mi North 10.4 mph - N/A   Clear
4:55 PM 42.3 °F 37.3 °F 29.3 °F 60% 30.35 in 10.0 mi NNW 8.1 mph - N/A   Clear
5:55 PM 38.7 °F 35.2 °F 29.3 °F 69% 30.36 in 10.0 mi North 4.6 mph - N/A   Clear
6:55 PM 39.9 °F 37.8 °F 29.1 °F 65% 30.38 in 10.0 mi North 3.5 mph - N/A   Clear
7:55 PM 36.3 °F 33.7 °F 29.3 °F 76% 30.39 in 10.0 mi NW 3.5 mph - N/A   Clear
8:55 PM 35.2 °F - 28.6 °F 77% 30.41 in 10.0 mi Calm Calm - N/A   Clear
9:55 PM 33.3 °F 30.2 °F 28.0 °F 81% 30.42 in 10.0 mi NNW 3.5 mph - N/A   Clear
10:55 PM 32.9 °F 29.8 °F 28.6 °F 84% 30.42 in 10.0 mi NW 3.5 mph - N/A   Clear
11:55 PM 33.4 °F 28.1 °F 28.4 °F 82% 30.42 in 10.0 mi NNW 5.8 mph - N/A   Clear